User: anonymous   Login
Location: Unspecified
(0.0000°N, 0.0000°E)
Time: 02:30:49
(UTC+00:00)
Language:

Tiangong 1 - Orbit

View from above orbital plane
View from above orbital plane
View from above satellite
View from above satellite

Ground track
Ground track

The orbit data is extracted from the following two-line orbital elements,

1 37820U 11053A   16206.76990741  .00013467  00000-0  14081-3 0  9996
2 37820  42.7626  22.2911 0015693 299.9926 256.6374 15.64179032276462
Epoch (UTC): 24 July 2016 18:28:40
Eccentricity: 0.0015693
inclination: 42.7626°
perigee height: 365 km
apogee height: 386 km
right ascension of ascending node: 22.2911°
argument of perigee: 299.9926°
revolutions per day: 15.64179032
mean anomaly at epoch: 256.6374°
orbit number at epoch: 27646

The dashed part of the orbit path shows where the satellite is in the earth's shadow,  

DLR